Location: Newark
(35.2672°N, 80.7344°W)
Time: 04:57:04
(UTC+00:00)

Tiros 1 - Pass Details

Date: 26 January 2020
Orbit: 631 x 664 km, 48.4° (Epoch: 18 February)

Event Time Altitude Azimuth Distance (km) Brightness Sun altitude
Rises 02:01:57 0° 283° (WNW) 2,986 11.4 -40.4°
Enters shadow 02:05:48 - 252° (WSW) 2,129 10.4 -41.2°
Reaches altitude 10° 02:06:22 10° 245° (WSW) 2,072 - -41.3°
Maximum altitude 02:07:21 11° 233° (SW) 2,032 - -41.5°
Drops below altitude 10° 02:08:21 10° 221° (SW) 2,071 - -41.7°
Sets 02:12:46 0° 183° (S) 2,977 - -42.6°
